Back to catalog

GOES 16

AliveWeatherGEO
NORAD 41866·PAYLOAD·🇺🇸 United States

Launched Nov 19, 2016 from Cape Canaveral Space Force Station

Loading…

TLE

FreshSource: Space-Track

Epoch: Sep 14, 2026, 15:30 UTC

1 41866U 16071A   26257.64593189 -.00000099  00000-0  00000-0 0  9996
2 41866   0.5567  84.5367 0001589 127.5052 269.4442  1.00271609 36004

Track GOES 16 in real time with AllMySat

Download on the App Store